[[{"header":{"parameterUnit":"m.s-1","parameterCategory":1,"la1":30.2991,"la2":30.254,"lo1":-89.0895,"lo2":-89.0444,"dy":0.0017,"dx":0.0017,"nx":28,"ny":28,"refTime":"2024-07-03T09:00:00:Z","depth":0,"parameterNumber":2,"parameterNumberName":"U-component_of_WINDS"},"data":[0,0,0,0,0,0,0,0,0,0,0,0,0,0,0,0,0,0,0,0,0,0,0,0,0,0,0,0,0,0,0,0,0,0,0,0,0,0,0,0,0,0,0,0,0,0,0,0,0,0,0,0,0,0,0,0,0,0,0.6819,0.6821,0,0.6946,0.6947,0.6949,0.6984,0.6983,0.6983,0.6982,0.7115,0.7119,0.7123,0,0,0,0,0,0,0,0,0,0,0,0,0,0.6609,0.6613,0.6819,0.6821,0.6822,0.6946,0.6948,0.6949,0.6984,0.6983,0.6982,0.6982,0.7113,0.7118,0.7123,0,0,0,0,0,0,0,0,0,0,0,0,0,0.6715,0.6614,0.6819,0.6855,0.6859,0.6945,0.6948,0.695,0.6984,0.6983,0.6982,0.6981,0.7112,0.7118,0.7124,0.7185,0,0,0.7143,0.7146,0,0,0,0,0,0,0,0,0.6709,0.6722,0.6848,0.6852,0.6857,0.6948,0.6922,0.7029,0.6985,0.6937,0.6982,0.6981,0.706,0.7071,0.7097,0.7191,0.7197,0.7144,0.7148,0.7151,0.7152,0,0,0,0,0,0,0,0.6701,0.6717,0.6869,0.6849,0.6855,0.6865,0.6879,0.6943,0.7003,0.6941,0.6944,0.6958,0.7063,0.7091,0.7101,0.7199,0.7144,0.7149,0.7153,0.7156,0.7349,0.735,0,0,0,0,0,0,0.6688,0.6711,0.6865,0.6873,0.6779,0.687,0.6885,0.692,0.7003,0.7014,0.6959,0.6959,0.7081,0.7093,0.7105,0.7182,0.7151,0.7156,0.716,0.7348,0.7349,0.7351,0,0,0,0,0,0,0.6683,0.6701,0.686,0.6793,0.6814,0.6874,0.6913,0.6923,0.6951,0.7016,0.7027,0.6976,0.708,0.7096,0.7165,0.7187,0.7159,0.7165,0.7346,0.7348,0.735,0.7336,0,0,0,0,0,0,0.6677,0.6699,0.6723,0.6793,0.6817,0.6917,0.6915,0.6926,0.6962,0.6963,0.7036,0.7047,0.7081,0.7155,0.7171,0.7195,0.717,0.7345,0.7347,0.735,0.7335,0.7337,0.7339,0,0,0,0,0,0.6669,0.6714,0.6724,0.6742,0.6848,0.6918,0.6932,0.6969,0.6963,0.6988,0.7029,0.7044,0.7182,0.7162,0.718,0.7207,0.7343,0.7346,0.7349,0.7334,0.7337,0.7339,0,0,0,0,0,0,0.6646,0.6724,0.6735,0.6804,0.6854,0.6924,0.6956,0.6972,0.7025,0.7024,0.707,0.7086,0.7151,0.7186,0.7162,0.727,0.7263,0.727,0.7245,0.7248,0.725,0.7241,0.7175,0,0,0,0,0,0.6649,0.6699,0.6765,0.6819,0.6843,0.6895,0.6927,0.6951,0.7005,0.7027,0.7074,0.7126,0.7181,0.7216,0.7271,0.7339,0.7356,0.7367,0.7369,0.737,0.7376,0.7415,0.7421,0.7361,0.7361,0.7361,0,0,0.6656,0.6704,0.6733,0.6816,0.6857,0.6908,0.6913,0.6967,0.7006,0.7036,0.7103,0.7138,0.72,0.7268,0.7301,0.7299,0.7396,0.7374,0.7375,0.738,0.7419,0.7424,0.7429,0.7363,0.7362,0.7362,0,0,0.6694,0.6735,0.6785,0.6826,0.6888,0.6922,0.6934,0.7001,0.7026,0.7093,0.7117,0.7164,0.7257,0.73,0.7334,0.7387,0.7403,0.7403,0.7416,0.7453,0.7458,0.7462,0.7481,0.7488,0.7409,0.7409,0.7409,0,0.6695,0.6772,0.6809,0.6862,0.6898,0.6925,0.6977,0.7015,0.7092,0.7116,0.7113,0.7231,0.7274,0.7353,0.7365,0.7392,0.7407,0.7396,0.7454,0.7459,0.7463,0.7482,0.7489,0.7408,0.7408,0.7408,0.7408,0,0.677,0.6823,0.6856,0.6928,0.6967,0.7019,0.7065,0.71,0.7121,0.7155,0.7223,0.7276,0.7341,0.7361,0.7383,0.7443,0.744,0.7445,0.7439,0.7468,0.7486,0.7494,0.7408,0.7408,0.7408,0.7408,0,0,0.6798,0.6889,0.6901,0.6934,0.7004,0.7046,0.7099,0.7161,0.7191,0.7243,0.7288,0.7366,0.7371,0.7409,0.7435,0.7468,0.7506,0.7469,0.7471,0.7474,0.7576,0.7573,0.758,0.7517,0.7518,0.7519,0.7571,0,0.6846,0.694,0.6975,0.7053,0.7102,0.7129,0.7175,0.7223,0.7256,0.7304,0.7341,0.7395,0.7397,0.742,0.7453,0.7494,0.7527,0.7491,0.756,0.7562,0.7545,0.759,0.7587,0.7633,0.7579,0.758,0.7581,0,0.6914,0.6965,0.7047,0.711,0.7133,0.7173,0.7233,0.7278,0.7333,0.7355,0.7397,0.742,0.7477,0.7467,0.7546,0.752,0.7551,0.7575,0.7578,0.7586,0.7574,0.76,0.7649,0.7656,0.7592,0.7591,0.7591,0,0.6927,0.7016,0.7077,0.7104,0.7179,0.7207,0.724,0.7294,0.7329,0.7381,0.7405,0.7463,0.7495,0.754,0.7579,0.7568,0.7655,0.7648,0.7675,0.7674,0.7693,0.7692,0.7748,0.7711,0.7711,0.7711,0.7711,0,0.6976,0.7026,0.7084,0.7121,0.7177,0.7217,0.7271,0.7306,0.7353,0.7398,0.7425,0.7467,0.7515,0.7564,0.7595,0.7655,0.767,0.7689,0.7697,0.7687,0.7685,0.7709,0.7707,0.7713,0.7713,0.7712,0.7712,0,0.7,0.7041,0.7109,0.7174,0.7191,0.723,0.7286,0.7324,0.7357,0.7414,0.7429,0.7483,0.7541,0.7583,0.7659,0.768,0.7745,0.7752,0.7726,0.773,0.7755,0.7752,0.7829,0.7841,0.7796,0.7796,0.7796,0,0.703,0.7068,0.7137,0.7168,0.72,0.7251,0.7286,0.7326,0.7362,0.7427,0.7457,0.7517,0.7567,0.7658,0.7704,0.7762,0.7772,0.7794,0.7781,0.7769,0.7773,0.777,0.7774,0.7797,0.7797,0.7797,0.7797,0,0.7077,0.7095,0.7145,0.7202,0.7243,0.729,0.7337,0.7361,0.741,0.7449,0.7508,0.7546,0.7623,0.7682,0.7744,0.7778,0.7796,0.7801,0.7811,0.7802,0.7785,0.7795,0.7732,0.78,0.7799,0.7799,0.7799,0.7799,0.7106,0.7141,0.7194,0.7249,0.7288,0.7331,0.7369,0.7407,0.7457,0.7521,0.7542,0.7603,0.7657,0.7742,0.7777,0.7825,0.7825,0.7839,0.7842,0.7845,0.7845,0.7776,0.7837,0.7837,0.7837,0.7837,0.7837,0,0.7155,0.719,0.724,0.7304,0.7347,0.7358,0.7411,0.7446,0.7499,0.7547,0.7595,0.7663,0.772,0.777,0.7829,0.7859,0.7868,0.7873,0.7872,0.7879,0.7842,0.7828,0.7864,0.7864,0.7864,0.7864,0.7864,0.7864,0.7186,0.7246,0.727,0.735,0.7385,0.7444,0.7473,0.7514,0.7552,0.7626,0.7673,0.7704,0.7753,0.7816,0.7869,0.7882,0.7903,0.7906,0.7921,0.7885,0.7882,0.7879,0.7866,0.791,0.791,0.7955,0.7956,0.7956]},{"header":{"parameterUnit":"m.s-1","parameterCategory":1,"la1":30.2991,"la2":30.254,"lo1":-89.0895,"lo2":-89.0444,"dy":0.0017,"dx":0.0017,"nx":28,"ny":28,"refTime":"2024-07-03T09:00:00:Z","depth":0,"parameterNumber":3,"parameterNumberName":"V-component_of_WINDS"},"data":[0,0,0,0,0,0,0,0,0,0,0,0,0,0,0,0,0,0,0,0,0,0,0,0,0,0,0,0,0,0,0,0,0,0,0,0,0,0,0,0,0,0,0,0,0,0,0,0,0,0,0,0,0,0,0,0,0,0,5.3287,5.3287,0,5.329,5.329,5.329,5.3224,5.3223,5.3221,5.3219,5.3221,5.3222,5.3224,0,0,0,0,0,0,0,0,0,0,0,0,0,5.3224,5.3226,5.3287,5.3287,5.3287,5.329,5.329,5.329,5.3225,5.3223,5.322,5.3218,5.322,5.3222,5.3224,0,0,0,0,0,0,0,0,0,0,0,0,0,5.3242,5.3226,5.3287,5.3255,5.3252,5.329,5.329,5.329,5.3225,5.3222,5.322,5.3217,5.3219,5.3222,5.3224,5.3293,0,0,5.3232,5.3233,0,0,0,0,0,0,0,0,5.3241,5.3244,5.326,5.3257,5.3254,5.3254,5.3268,5.3291,5.3226,5.3235,5.3219,5.3216,5.3234,5.3235,5.3241,5.3293,5.3293,5.3232,5.3234,5.3235,5.3236,0,0,0,0,0,0,0,5.324,5.3244,5.3288,5.326,5.3257,5.324,5.324,5.3272,5.3249,5.3234,5.323,5.3231,5.3232,5.3239,5.3241,5.3293,5.3232,5.3234,5.3236,5.3237,5.3401,5.3404,0,0,0,0,0,0,5.3243,5.3243,5.3288,5.3288,5.3241,5.3243,5.3243,5.3257,5.3249,5.3245,5.3233,5.3228,5.3236,5.3238,5.3241,5.332,5.3235,5.3237,5.3239,5.3398,5.3402,5.3405,0,0,0,0,0,0,5.3242,5.3248,5.3288,5.3265,5.3268,5.3247,5.3264,5.3258,5.3265,5.3248,5.3243,5.3245,5.3234,5.3237,5.328,5.3319,5.3238,5.3241,5.3395,5.3399,5.3403,5.348,0,0,0,0,0,0,5.3241,5.3248,5.3274,5.3266,5.327,5.3328,5.3266,5.326,5.327,5.3263,5.3258,5.3254,5.3232,5.3277,5.3283,5.3321,5.3243,5.3391,5.3397,5.3402,5.3474,5.3486,5.3497,0,0,0,0,0,5.3239,5.3295,5.3275,5.3281,5.3302,5.3331,5.3333,5.3307,5.3274,5.3299,5.3288,5.3254,5.3314,5.3282,5.3288,5.3328,5.3389,5.3395,5.3401,5.3469,5.3484,5.3497,0,0,0,0,0,0,5.3307,5.3293,5.3271,5.3327,5.3331,5.332,5.3351,5.3324,5.3337,5.333,5.3296,5.3296,5.3345,5.334,5.3305,5.3394,5.3345,5.3353,5.3395,5.3409,5.342,5.342,5.3245,0,0,0,0,0,5.3329,5.3354,5.334,5.339,5.3393,5.3372,5.3384,5.3364,5.3366,5.3367,5.3359,5.3362,5.3382,5.3395,5.3412,5.3473,5.3471,5.3504,5.3515,5.3525,5.3532,5.3564,5.3579,5.3426,5.3426,5.3426,0,0,5.3373,5.3369,5.3387,5.3404,5.3404,5.3431,5.3374,5.3404,5.3423,5.3371,5.3412,5.3406,5.3408,5.3461,5.3483,5.3459,5.3574,5.3533,5.3541,5.3543,5.3572,5.3587,5.36,5.343,5.3429,5.3429,0,0,5.3468,5.3468,5.351,5.3512,5.3514,5.35,5.351,5.3503,5.3498,5.3538,5.35,5.3522,5.3557,5.3559,5.3565,5.3663,5.3632,5.367,5.373,5.3762,5.3774,5.3784,5.3819,5.3832,5.3677,5.3677,5.3677,0,5.3523,5.3562,5.3534,5.3568,5.3576,5.3532,5.3574,5.3577,5.3584,5.3591,5.3564,5.3607,5.3604,5.3657,5.3681,5.3688,5.3698,5.367,5.3774,5.3785,5.3794,5.3827,5.384,5.3681,5.3681,5.368,5.368,0,5.363,5.3657,5.3691,5.37,5.3713,5.375,5.3728,5.3744,5.3723,5.3712,5.3754,5.375,5.3766,5.3777,5.3757,5.3828,5.3812,5.378,5.3731,5.3814,5.3844,5.3856,5.3688,5.3686,5.3685,5.3684,0,0,5.3767,5.3761,5.3774,5.3778,5.3777,5.3798,5.3834,5.385,5.3864,5.3871,5.39,5.3931,5.3902,5.3908,5.3888,5.3916,5.3994,5.3881,5.388,5.3902,5.4072,5.4096,5.4111,5.3974,5.3976,5.3978,5.4072,0,5.3859,5.392,5.3897,5.3959,5.3984,5.3943,5.3974,5.3977,5.3968,5.3988,5.3977,5.4,5.3959,5.3963,5.3989,5.3979,5.4028,5.3972,5.4,5.4002,5.4001,5.4126,5.4151,5.424,5.4083,5.4085,5.4087,0,5.3974,5.3987,5.4052,5.4048,5.4058,5.4086,5.41,5.4119,5.4122,5.4113,5.4122,5.4096,5.413,5.4082,5.4129,5.4092,5.4102,5.4099,5.4102,5.4103,5.4049,5.4131,5.4267,5.428,5.4105,5.4104,5.4102,0,5.4067,5.4101,5.4144,5.4149,5.4145,5.4166,5.4166,5.4166,5.4177,5.4189,5.4196,5.4211,5.422,5.4232,5.4211,5.4178,5.4261,5.4211,5.4254,5.4255,5.4273,5.4272,5.4413,5.4281,5.4281,5.4281,5.428,0,5.4172,5.4214,5.4186,5.4213,5.4259,5.4232,5.4277,5.4272,5.4273,5.4298,5.4263,5.4287,5.4257,5.4279,5.4262,5.4304,5.4308,5.4301,5.4296,5.4304,5.4305,5.431,5.4303,5.4284,5.4283,5.4283,5.4282,0,5.4283,5.4267,5.4311,5.4305,5.4304,5.4338,5.4332,5.4357,5.4346,5.4378,5.4384,5.4366,5.4389,5.437,5.4392,5.4381,5.4436,5.4422,5.4435,5.4431,5.4476,5.4472,5.4625,5.4643,5.45,5.4501,5.4502,0,5.4351,5.4382,5.438,5.4394,5.4396,5.442,5.4432,5.4407,5.4421,5.4427,5.4451,5.4471,5.4486,5.4525,5.4514,5.4531,5.4517,5.457,5.452,5.4527,5.4518,5.4516,5.4519,5.458,5.4581,5.4583,5.4584,0,5.4473,5.4464,5.4482,5.4499,5.4515,5.4526,5.4534,5.4548,5.4523,5.454,5.4564,5.4576,5.4599,5.462,5.4633,5.4632,5.4604,5.46,5.4611,5.4619,5.4625,5.4622,5.4463,5.4596,5.4595,5.4594,5.4594,5.4593,5.4564,5.4591,5.4593,5.4615,5.462,5.4629,5.4652,5.4644,5.4664,5.4681,5.4665,5.4694,5.4697,5.4712,5.4715,5.4737,5.4715,5.4731,5.4734,5.4739,5.4745,5.4622,5.4739,5.4739,5.4738,5.4738,5.4738,0,5.4684,5.4685,5.4706,5.4719,5.4737,5.471,5.4719,5.4735,5.4761,5.4766,5.4782,5.481,5.483,5.4821,5.4839,5.4858,5.4846,5.4864,5.4862,5.4862,5.4764,5.4752,5.4873,5.4873,5.4873,5.4873,5.4873,5.4873,5.4749,5.4792,5.4783,5.4828,5.4827,5.4856,5.4863,5.4871,5.4875,5.4908,5.4925,5.492,5.4919,5.4937,5.4954,5.4951,5.4959,5.4982,5.4974,5.4882,5.4869,5.4856,5.4845,5.4984,5.4984,5.507,5.5071,5.5071]}]]